,,PA_Meas_PMT16A,,PR_Meas_QMR101_102,,RH_Meas_QMH101,,SR_Meas_QMS101,,TA_Meas_QMH101,,GenWind,,GenWind,
time,status,PA,status,PR,status,RH,status,SR,status,TA,status,DirAvg,status,SpdAvg,
2016-09-21, 14:24:04,VALID,918.118,VALID,0,INVALID,116.036,VALID,122.59,VALID,19.2558,VALID,359,VALID,2.61484,
2016-09-21, 14:26:04,VALID,918.141,VALID,0,INVALID,116.105,VALID,130.648,VALID,19.3143,VALID,3,VALID,0.826563,
2016-09-21, 14:27:04,VALID,918.153,VALID,0,INVALID,116.135,VALID,130.863,VALID,19.3533,VALID,6,VALID,1.8793,
2016-09-21, 14:28:04,VALID,918.11,VALID,0,INVALID,116.188,VALID,141.5,VALID,19.3923,VALID,17,VALID,1.44336,
2016-09-21, 14:29:04,VALID,918.117,VALID,0,INVALID,116.326,VALID,162.988,VALID,19.4118,VALID,9,VALID,1.20508,
2016-09-21, 14:30:04,VALID,918.155,VALID,0,INVALID,116.341,VALID,142.252,VALID,19.4703,VALID,4,VALID,1.29648,
2016-09-21, 14:31:04,VALID,918.167,VALID,0,INVALID,116.486,VALID,140.64,VALID,19.4898,VALID,23,VALID,1.33398,
2016-09-21, 14:32:04,VALID,918.235,VALID,0,INVALID,116.501,VALID,144.723,VALID,19.5678,VALID,30,VALID,0.510156,
2016-09-21, 14:33:04,VALID,918.263,VALID,0,INVALID,116.6,VALID,150.31,VALID,19.5663,VALID,334,VALID,0.0121094,
2016-09-21, 14:34:04,VALID,918.289,VALID,0,INVALID,116.928,VALID,163.096,VALID,19.5873,VALID,360,VALID,0,
2016-09-21, 14:35:04,VALID,918.278,VALID,0,INVALID,117.073,VALID,195.435,VALID,19.6068,VALID,27,VALID,1.09336,
2016-09-21, 14:36:04,VALID,918.354,VALID,0,INVALID,117.18,VALID,200.163,VALID,19.6443,VALID,286,VALID,0,
2016-09-21, 14:37:04,VALID,918.414,VALID,0,INVALID,117.484,VALID,186.948,VALID,19.6263,VALID,268,VALID,0,
2016-09-21, 14:38:04,VALID,918.421,VALID,0,INVALID,117.53,VALID,164.6,VALID,19.7043,VALID,346,VALID,0.4875,
2016-09-21, 14:39:04,VALID,918.4,VALID,0,INVALID,117.858,VALID,153.856,VALID,19.7418,VALID,354,VALID,1.92227,
2016-09-21, 14:40:04,VALID,918.427,VALID,0,INVALID,118.209,VALID,138.062,VALID,19.7433,VALID,359,VALID,0.884375,
2016-09-21, 14:46:04,VALID,918.53,VALID,0,INVALID,119.268,VALID,126.781,VALID,19.8603,VALID,336,VALID,0,
2016-09-21, 14:47:04,VALID,918.55,VALID,0,INVALID,119.352,VALID,125.062,VALID,19.8408,VALID,349,VALID,1.06367,
2016-09-21, 14:49:04,VALID,918.533,VALID,0,INVALID,119.306,VALID,129.789,VALID,19.8198,VALID,335,VALID,0.251563,
2016-09-21, 14:50:04,VALID,918.565,VALID,0,INVALID,119.314,VALID,147.302,VALID,19.8603,VALID,335,VALID,0,
2016-09-21, 14:51:04,VALID,918.557,VALID,0,INVALID,119.291,VALID,143.864,VALID,19.8588,VALID,343,VALID,0,
2016-09-21, 14:52:04,VALID,918.541,VALID,0,INVALID,119.284,VALID,144.293,VALID,19.8978,VALID,340,VALID,0,
2016-09-21, 14:53:04,VALID,918.507,VALID,0,INVALID,119.291,VALID,157.186,VALID,19.9173,VALID,360,VALID,0.686719,
2016-09-21, 14:54:04,VALID,918.534,VALID,0,INVALID,119.329,VALID,166.641,VALID,19.9758,VALID,359,VALID,0,
2016-09-21, 14:55:04,VALID,918.543,VALID,0,INVALID,119.299,VALID,158.368,VALID,19.9758,VALID,353,VALID,0,
2016-09-21, 14:56:04,VALID,918.577,VALID,0,INVALID,119.314,VALID,169.22,VALID,19.9758,VALID,304,VALID,0.520703,
2016-09-21, 14:57:04,VALID,918.576,VALID,0,INVALID,119.322,VALID,181.468,VALID,20.0538,VALID,35,VALID,1.49727,
2016-09-21, 14:58:04,VALID,918.555,VALID,0,INVALID,119.306,VALID,203.708,VALID,20.1108,VALID,7,VALID,1.0957,
2016-09-21, 14:59:04,VALID,918.547,VALID,0,INVALID,119.291,VALID,224.122,VALID,20.1123,VALID,42,VALID,1.95117,
2016-09-21, 15:00:04,VALID,918.55,VALID,0,INVALID,119.291,VALID,207.576,VALID,20.2293,VALID,21,VALID,0.971094,
2016-09-21, 15:01:04,VALID,918.57,VALID,0,INVALID,119.291,VALID,214.023,VALID,20.2863,VALID,22,VALID,0.920703,
2016-09-21, 15:02:04,VALID,918.555,VALID,0,INVALID,119.337,VALID,224.874,VALID,20.3269,VALID,119,VALID,1.18555,
2016-09-21, 15:03:04,VALID,918.555,VALID,0,INVALID,119.146,VALID,220.254,VALID,20.3074,VALID,15,VALID,1.91445,
2016-09-21, 15:04:04,VALID,918.526,VALID,0,INVALID,118.963,VALID,192.535,VALID,20.2863,VALID,27,VALID,2.21328,
2016-09-21, 15:05:04,VALID,918.574,VALID,0,INVALID,118.88,VALID,179.534,VALID,20.3074,VALID,27,VALID,1.68711,
2016-09-21, 15:06:04,VALID,918.555,VALID,0,INVALID,118.834,VALID,175.237,VALID,20.3074,VALID,27,VALID,1.90703,
2016-09-21, 15:07:04,VALID,918.578,VALID,0,INVALID,118.552,VALID,168.36,VALID,20.2684,VALID,13,VALID,1.55664,
2016-09-21, 15:08:04,VALID,918.534,VALID,0,INVALID,118.491,VALID,169.864,VALID,20.2684,VALID,19,VALID,1.98086,
2016-09-21, 15:09:04,VALID,918.614,VALID,0,INVALID,118.597,VALID,171.798,VALID,20.2879,VALID,7,VALID,1.11328,
2016-09-21, 15:10:04,VALID,918.567,VALID,0,INVALID,118.544,VALID,175.666,VALID,20.2684,VALID,31,VALID,0.621094,
2016-09-21, 15:11:04,VALID,918.632,VALID,0,INVALID,118.071,VALID,178.782,VALID,20.2293,VALID,256,VALID,0.324219,
2016-09-21, 15:12:04,VALID,918.614,VALID,0,INVALID,117.927,VALID,172.55,VALID,20.2098,VALID,357,VALID,0.0332031,
2016-09-21, 15:13:04,VALID,918.609,VALID,0,INVALID,118.125,VALID,148.484,VALID,20.2489,VALID,22,VALID,1.52539,
2016-09-21, 15:14:04,VALID,918.653,VALID,0,INVALID,118.453,VALID,145.046,VALID,20.2684,VALID,32,VALID,1.33594,
2016-09-21, 15:15:04,VALID,918.71,VALID,0,INVALID,118.681,VALID,145.475,VALID,20.3074,VALID,34,VALID,1.0793,
2016-09-21, 15:16:04,VALID,918.694,VALID,0,INVALID,118.796,VALID,147.839,VALID,20.3269,VALID,357,VALID,0,
2016-09-21, 15:17:04,VALID,918.74,VALID,0,INVALID,118.3,VALID,148.269,VALID,20.2684,VALID,360,VALID,1.40859,
2016-09-21, 15:18:04,VALID,918.769,VALID,0,INVALID,118.102,VALID,148.484,VALID,20.2489,VALID,350,VALID,0.00195313,
2016-09-21, 15:19:04,VALID,918.846,VALID,0,INVALID,118.178,VALID,153.856,VALID,20.2293,VALID,291,VALID,1.3207,
2016-09-21, 15:20:04,VALID,918.849,VALID,0,INVALID,117.988,VALID,152.029,VALID,20.1708,VALID,24,VALID,2.58867,
2016-09-21, 15:21:04,VALID,918.87,VALID,0,INVALID,118.354,VALID,154.823,VALID,20.1708,VALID,16,VALID,2.34648,
2016-09-21, 15:22:04,VALID,918.903,VALID,0,INVALID,118.613,VALID,149.666,VALID,20.1708,VALID,17,VALID,1.96797,
2016-09-21, 15:23:04,VALID,918.949,VALID,0,INVALID,118.369,VALID,139.673,VALID,20.0718,VALID,303,VALID,0.236328,
2016-09-21, 15:24:04,VALID,918.987,VALID,0,INVALID,118.529,VALID,153.426,VALID,20.0733,VALID,35,VALID,0,
2016-09-21, 15:25:04,VALID,918.983,VALID,0,INVALID,118.78,VALID,163.311,VALID,20.0928,VALID,80,VALID,0.490234,
2016-09-21, 15:26:04,VALID,918.992,VALID,0,INVALID,118.857,VALID,141.285,VALID,20.0718,VALID,46,VALID,1.21445,
2016-09-21, 15:27:04,VALID,919.02,VALID,0,INVALID,119.032,VALID,184.906,VALID,20.1123,VALID,355,VALID,0,
2016-09-21, 15:28:04,VALID,919.047,VALID,0,INVALID,119.04,VALID,205.535,VALID,20.0718,VALID,182,VALID,1.34961,
2016-09-21, 15:29:04,VALID,919.036,VALID,0,INVALID,118.925,VALID,190.171,VALID,20.0538,VALID,41,VALID,0.994141,
2016-09-21, 15:30:04,VALID,919.045,VALID,0,INVALID,119.169,VALID,192.212,VALID,20.1108,VALID,18,VALID,1.47578,
2016-09-21, 15:31:04,VALID,919.017,VALID,0,INVALID,119.238,VALID,191.46,VALID,20.1903,VALID,292,VALID,0,
2016-09-21, 15:32:04,VALID,919.016,VALID,0,INVALID,119.245,VALID,182.435,VALID,20.1318,VALID,352,VALID,0.138672,
2016-09-21, 15:33:04,VALID,919.044,VALID,0,INVALID,119.192,VALID,182.005,VALID,20.1123,VALID,323,VALID,0.259375,
2016-09-21, 15:34:04,VALID,919.024,VALID,0,INVALID,119.207,VALID,173.41,VALID,20.0328,VALID,145,VALID,0.741016,
2016-09-21, 15:35:04,VALID,919.031,VALID,0,INVALID,119.207,VALID,188.667,VALID,20.0718,VALID,21,VALID,1.35586,
2016-09-21, 15:36:04,VALID,919.058,VALID,0,INVALID,119.238,VALID,182.757,VALID,20.1108,VALID,5,VALID,0.190234,
2016-09-21, 15:37:04,VALID,919.103,VALID,0,INVALID,119.284,VALID,163.955,VALID,20.1693,VALID,8,VALID,0.155859,
2016-09-21, 15:38:04,VALID,919.077,VALID,0,INVALID,119.215,VALID,192.212,VALID,20.2473,VALID,23,VALID,1.25586,
2016-09-21, 15:39:04,VALID,919.104,VALID,0,INVALID,119.284,VALID,221.866,VALID,20.2668,VALID,38,VALID,1.14102,
2016-09-21, 15:40:04,VALID,919.173,VALID,0,INVALID,119.291,VALID,235.726,VALID,20.3074,VALID,234,VALID,0.582422,
2016-09-21, 15:41:04,VALID,919.092,VALID,0,INVALID,119.482,VALID,214.775,VALID,20.1903,VALID,38,VALID,2.1332,
2016-09-21, 15:42:04,VALID,919.243,VALID,0,INVALID,119.352,VALID,214.99,VALID,20.1693,VALID,30,VALID,1.31914,
2016-09-21, 15:43:04,VALID,919.257,VALID,0,INVALID,119.299,VALID,245.825,VALID,20.2879,VALID,19,VALID,2.12578,
2016-09-21, 15:44:04,VALID,919.263,VALID,0,INVALID,119.306,VALID,204.246,VALID,20.3253,VALID,18,VALID,0.595703,
2016-09-21, 15:45:04,VALID,919.263,VALID,0,INVALID,119.268,VALID,219.287,VALID,20.3838,VALID,5,VALID,0.194141,
2016-09-21, 15:46:04,VALID,919.236,VALID,0,INVALID,119.291,VALID,250.768,VALID,20.4634,VALID,338,VALID,0.854688,
2016-09-21, 15:47:04,VALID,919.252,VALID,0,INVALID,119.337,VALID,328.662,VALID,20.4033,VALID,198,VALID,0.0808594,
2016-09-21, 15:48:04,VALID,919.263,VALID,0,INVALID,119.337,VALID,295.033,VALID,20.4813,VALID,20,VALID,0.767578,
2016-09-21, 15:49:04,VALID,919.27,VALID,0,INVALID,119.329,VALID,312.117,VALID,20.5399,VALID,24,VALID,1.30234,
2016-09-21, 15:50:04,VALID,919.284,VALID,0,INVALID,119.314,VALID,212.626,VALID,20.6179,VALID,27,VALID,1.81055,
2016-09-21, 15:51:04,VALID,919.326,VALID,0,INVALID,119.329,VALID,207.469,VALID,20.6569,VALID,19,VALID,0.281641,
2016-09-21, 15:52:04,VALID,919.332,VALID,0,INVALID,119.375,VALID,232.503,VALID,20.6764,VALID,17,VALID,0,
2016-09-21, 15:53:04,VALID,919.368,VALID,0,INVALID,119.322,VALID,224.23,VALID,20.7154,INVALID,360,VALID,0,
2016-09-21, 15:54:04,VALID,919.387,VALID,0,INVALID,119.291,VALID,198.981,VALID,20.7934,VALID,359,VALID,0,
2016-09-21, 15:55:04,VALID,919.4,VALID,0,INVALID,119.314,VALID,152.781,VALID,20.8113,VALID,43,VALID,0.89375,
2016-09-21, 15:56:04,VALID,919.429,VALID,0,INVALID,119.101,VALID,160.41,VALID,20.7333,VALID,344,VALID,0.151953,
2016-09-21, 15:57:04,VALID,919.443,VALID,0,INVALID,118.811,VALID,149.236,VALID,20.7349,VALID,259,VALID,0.429297,
2016-09-21, 15:58:04,VALID,919.46,VALID,0,INVALID,118.62,VALID,126.781,VALID,20.7138,VALID,27,VALID,1.4957,
2016-09-21, 15:59:04,VALID,919.476,VALID,0,INVALID,118.308,VALID,128.392,VALID,20.6748,VALID,318,VALID,0.9625,
2016-09-21, 16:00:04,VALID,919.436,VALID,0,INVALID,118.026,VALID,178.675,VALID,20.6374,VALID,29,VALID,0.820313,
2016-09-21, 16:01:04,VALID,919.433,VALID,0,INVALID,118.323,VALID,187.485,VALID,20.6569,VALID,21,VALID,1.78789,
2016-09-21, 16:02:04,VALID,919.426,VALID,0,INVALID,118.674,VALID,200.7,VALID,20.6959,VALID,1,VALID,0.788672,
2016-09-21, 16:03:04,VALID,919.427,VALID,0,INVALID,118.91,VALID,237.123,VALID,20.7755,VALID,20,VALID,0,
2016-09-21, 16:04:04,VALID,919.446,VALID,0,INVALID,118.895,VALID,202.634,VALID,20.7138,VALID,9,VALID,1.33281,
2016-09-21, 16:05:04,VALID,919.464,VALID,0,INVALID,118.78,VALID,153.963,VALID,20.7138,VALID,23,VALID,1.93594,
2016-09-21, 16:06:04,VALID,919.473,VALID,0,INVALID,118.872,VALID,176.418,VALID,20.7349,VALID,24,VALID,1.2918,
2016-09-21, 16:07:04,VALID,919.416,VALID,0,INVALID,118.552,VALID,186.41,VALID,20.6163,VALID,22,VALID,2.50234,
2016-09-21, 16:08:04,VALID,919.458,VALID,0,INVALID,118.651,VALID,142.36,VALID,20.6163,VALID,5,VALID,1.28359,
2016-09-21, 16:09:04,VALID,919.408,VALID,0,INVALID,118.62,VALID,150.203,VALID,20.5984,VALID,11,VALID,0.891406,
2016-09-21, 16:10:04,VALID,919.392,VALID,0,INVALID,118.788,VALID,182.22,VALID,20.6163,VALID,34,VALID,0.896875,
2016-09-21, 16:11:04,VALID,919.369,VALID,0,INVALID,118.819,VALID,209.725,VALID,20.6374,VALID,23,VALID,0,
2016-09-21, 16:12:04,VALID,919.39,VALID,0,INVALID,118.956,VALID,230.569,VALID,20.6943,VALID,17,VALID,0,
2016-09-21, 16:13:04,VALID,919.363,VALID,0,INVALID,119.116,VALID,231.858,VALID,20.7739,VALID,22,VALID,0,
2016-09-21, 16:14:04,VALID,919.413,VALID,0,INVALID,119.07,VALID,268.603,VALID,20.7723,VALID,316,VALID,0,
2016-09-21, 16:15:04,VALID,919.41,VALID,0,INVALID,118.994,VALID,242.71,VALID,20.7918,VALID,8,VALID,0,
2016-09-21, 16:16:04,VALID,919.381,VALID,0,INVALID,118.681,VALID,199.518,VALID,20.7723,VALID,11,VALID,0.768359,
2016-09-21, 16:17:04,VALID,919.425,VALID,0,INVALID,118.575,VALID,201.022,VALID,20.8113,VALID,301,VALID,0.0289063,
2016-09-21, 16:18:04,VALID,919.436,VALID,0,INVALID,118.27,VALID,176.096,VALID,20.7918,VALID,359,VALID,0.127734,
2016-09-21, 16:19:04,VALID,919.461,VALID,0,INVALID,118.247,VALID,148.591,VALID,20.8113,VALID,21,VALID,0.046875,
2016-09-21, 16:20:04,VALID,919.488,VALID,0,INVALID,118.11,VALID,157.831,VALID,20.7723,VALID,359,VALID,1.15117,
2016-09-21, 16:21:04,VALID,919.469,VALID,0,INVALID,118.346,VALID,199.303,VALID,20.8113,VALID,11,VALID,0,
2016-09-21, 16:22:04,VALID,919.45,VALID,0,INVALID,118.384,VALID,185.336,VALID,20.8699,VALID,10,VALID,1.25391,
2016-09-21, 16:23:04,VALID,919.45,VALID,0,INVALID,118.399,VALID,187.485,VALID,20.8894,VALID,27,VALID,0.502734,
2016-09-21, 16:24:04,VALID,919.484,VALID,0,INVALID,118.064,VALID,175.129,VALID,20.9089,VALID,315,VALID,1.2625,
2016-09-21, 16:25:04,VALID,919.46,VALID,0,INVALID,118.186,VALID,172.121,VALID,20.9284,VALID,359,VALID,0.669141,
2016-09-21, 16:26:04,VALID,919.448,VALID,0,INVALID,118.239,VALID,193.287,VALID,20.9674,VALID,114,VALID,0,
2016-09-21, 16:27:04,VALID,919.42,VALID,0,INVALID,118.155,VALID,203.816,VALID,21.0259,VALID,245,VALID,0,
2016-09-21, 16:28:04,VALID,919.431,VALID,0,INVALID,117.82,VALID,197.799,VALID,21.008,VALID,13,VALID,0,
2016-09-21, 16:29:04,VALID,919.391,VALID,0,INVALID,118.155,VALID,162.451,VALID,21.1445,VALID,43,VALID,0,
2016-09-21, 16:30:04,VALID,919.388,VALID,0,INVALID,118.163,VALID,168.575,VALID,21.164,VALID,327,VALID,0,
2016-09-21, 16:31:04,VALID,919.398,VALID,0,INVALID,118.11,VALID,175.774,VALID,21.2421,VALID,11,VALID,0,
2016-09-21, 16:32:04,VALID,919.387,VALID,0,INVALID,117.652,VALID,192.857,VALID,21.2827,VALID,10,VALID,0,
2016-09-21, 16:33:04,VALID,919.42,VALID,0,INVALID,116.806,VALID,192.427,VALID,21.2421,VALID,8,VALID,0,
2016-09-21, 16:34:04,VALID,919.426,VALID,0,INVALID,116.73,VALID,178.567,VALID,21.3006,VALID,8,VALID,0,
2016-09-21, 16:35:04,VALID,919.409,VALID,0,INVALID,115.8,VALID,131.508,VALID,21.2811,VALID,341,VALID,0,
2016-09-21, 16:36:04,VALID,919.42,VALID,0,INVALID,115.281,VALID,119.152,VALID,21.2031,VALID,30,VALID,0.5875,
2016-09-21, 16:37:04,VALID,919.446,VALID,0,INVALID,116.699,VALID,143.219,VALID,21.1624,VALID,118,VALID,0,
2016-09-21, 16:38:04,VALID,919.435,VALID,0,INVALID,117.019,VALID,144.508,VALID,21.1055,VALID,286,VALID,0,
2016-09-21, 16:39:04,VALID,919.431,VALID,0,INVALID,117.294,VALID,137.31,VALID,21.1055,VALID,325,VALID,0,
2016-09-21, 16:40:04,VALID,919.402,VALID,0,INVALID,117.53,VALID,111.309,VALID,21.125,VALID,42,VALID,0,
2016-09-21, 16:41:04,VALID,919.441,VALID,0,INVALID,117.248,VALID,96.3747,VALID,21.0275,VALID,71,VALID,0,
2016-09-21, 16:42:04,VALID,919.439,VALID,0,INVALID,117.263,VALID,86.8125,VALID,20.9885,VALID,168,VALID,0,
2016-09-21, 16:43:04,VALID,919.401,VALID,0,INVALID,117.744,VALID,89.6059,VALID,21.0064,VALID,168,VALID,0,
2016-09-21, 16:44:04,VALID,919.408,VALID,0,INVALID,117.69,VALID,103.036,VALID,20.9885,VALID,183,VALID,0,
2016-09-21, 16:45:04,VALID,919.389,VALID,0,INVALID,117.85,VALID,116.359,VALID,20.9885,VALID,183,VALID,0,
2016-09-21, 16:46:04,VALID,919.352,VALID,0,INVALID,117.889,VALID,149.128,VALID,20.9479,VALID,198,VALID,0,
2016-09-21, 16:47:04,VALID,919.346,VALID,0,INVALID,118.102,VALID,182.972,VALID,20.9869,VALID,197,VALID,0,
2016-09-21, 16:48:04,VALID,919.333,VALID,0,INVALID,118.338,VALID,200.055,VALID,21.0665,VALID,79,VALID,0,
2016-09-21, 16:49:04,VALID,919.345,VALID,0,INVALID,117.927,VALID,236.371,VALID,20.969,VALID,249,VALID,0,
2016-09-21, 16:50:04,VALID,919.327,VALID,0,INVALID,117.896,VALID,242.387,VALID,20.9105,VALID,258,VALID,0,
2016-09-21, 16:51:04,VALID,919.342,VALID,0,INVALID,118.132,VALID,221.114,VALID,20.891,VALID,253,VALID,0,
2016-09-21, 16:52:04,VALID,919.35,VALID,0,INVALID,118.277,VALID,200.593,VALID,20.891,VALID,254,VALID,0,
2016-09-21, 16:53:04,VALID,919.374,VALID,0,INVALID,118.727,VALID,175.344,VALID,20.9495,VALID,294,VALID,0,
2016-09-21, 16:54:04,VALID,919.399,VALID,0,INVALID,118.758,VALID,146.442,VALID,20.93,VALID,266,VALID,0,
2016-09-21, 16:55:04,VALID,919.4,VALID,0,INVALID,118.658,VALID,126.781,VALID,20.9495,VALID,266,VALID,0,
2016-09-21, 16:56:04,VALID,919.423,VALID,0,INVALID,118.681,VALID,141.607,VALID,20.93,VALID,261,VALID,0,
2016-09-21, 16:57:04,VALID,919.399,VALID,0,INVALID,118.704,VALID,191.03,VALID,20.9105,VALID,225,VALID,0,
2016-09-21, 16:58:04,VALID,919.401,VALID,0,INVALID,118.803,VALID,229.924,VALID,20.8714,VALID,275,VALID,0,
2016-09-21, 16:59:04,VALID,919.408,VALID,0,INVALID,118.727,VALID,248.189,VALID,20.8129,VALID,258,VALID,0,
2016-09-21, 17:00:04,VALID,919.445,VALID,0,INVALID,118.918,VALID,252.057,VALID,20.9105,VALID,258,VALID,0,
2016-09-21, 17:01:04,VALID,919.398,VALID,0,INVALID,119.009,VALID,247.437,VALID,20.8714,VALID,246,VALID,0,
2016-09-21, 17:02:04,VALID,919.415,VALID,0,INVALID,118.735,VALID,250.016,VALID,20.7138,VALID,246,VALID,0.0121094,
2016-09-21, 17:03:04,VALID,919.437,VALID,0,INVALID,118.735,VALID,265.272,VALID,20.6959,VALID,252,VALID,0,
2016-09-21, 17:04:04,VALID,919.432,VALID,0,INVALID,118.88,VALID,268.388,VALID,20.6553,VALID,256,VALID,0,
2016-09-21, 17:05:04,VALID,919.431,VALID,0,INVALID,119.078,VALID,272.578,VALID,20.7544,VALID,286,VALID,0,
2016-09-21, 17:06:04,VALID,919.428,VALID,0,INVALID,119.23,VALID,327.481,VALID,20.8129,VALID,263,VALID,0,
2016-09-21, 17:07:04,VALID,919.46,VALID,0,INVALID,119.291,VALID,346.713,VALID,20.8129,VALID,257,VALID,0,
2016-09-21, 17:08:04,VALID,919.425,VALID,0,INVALID,119.276,VALID,318.563,VALID,20.7934,VALID,231,VALID,2.11602,
2016-09-21, 17:09:04,VALID,919.467,VALID,0,INVALID,119.268,VALID,289.876,VALID,20.891,VALID,243,VALID,1.80898,
2016-09-21, 17:10:04,VALID,919.432,VALID,0,INVALID,119.245,VALID,228.85,VALID,20.8714,VALID,258,VALID,1.13437,
2016-09-21, 17:11:04,VALID,919.438,VALID,0,INVALID,119.253,VALID,167.501,VALID,20.891,VALID,242,VALID,0,
2016-09-21, 17:12:04,VALID,919.436,VALID,0,INVALID,119.215,VALID,140.426,VALID,20.9105,VALID,247,VALID,0,
2016-09-21, 17:13:04,VALID,919.444,VALID,0,INVALID,119.284,VALID,167.178,VALID,20.9706,VALID,47,VALID,0.322266,
2016-09-21, 17:14:04,VALID,919.426,VALID,0,INVALID,119.291,VALID,147.194,VALID,20.9495,VALID,260,VALID,0.349609,
2016-09-21, 17:15:04,VALID,919.471,VALID,0.2,INVALID,119.268,VALID,117.003,VALID,20.93,VALID,245,VALID,0,
2016-09-21, 17:16:04,VALID,919.48,VALID,0.2,INVALID,119.245,VALID,115.714,VALID,20.969,VALID,75,VALID,0,
2016-09-21, 17:17:04,VALID,919.48,VALID,0,INVALID,119.337,VALID,135.161,VALID,20.9105,VALID,262,VALID,0.604297,
2016-09-21, 17:18:04,VALID,919.507,VALID,0.2,INVALID,119.291,VALID,133.872,VALID,20.9105,VALID,280,VALID,0,
2016-09-21, 17:19:04,VALID,919.527,VALID,0,INVALID,119.23,VALID,130.326,VALID,20.9495,VALID,278,VALID,0,
2016-09-21, 17:20:04,VALID,919.522,VALID,0,INVALID,119.299,VALID,161.699,VALID,20.9105,VALID,266,VALID,0,
2016-09-21, 17:21:04,VALID,919.558,VALID,0,INVALID,119.261,VALID,184.154,VALID,20.9495,VALID,172,VALID,0,
2016-09-21, 17:22:04,VALID,919.554,VALID,0,INVALID,119.276,VALID,140.855,VALID,20.9105,VALID,255,VALID,0.40625,
2016-09-21, 17:23:04,VALID,919.581,VALID,0,INVALID,119.253,VALID,119.152,VALID,20.9495,VALID,353,VALID,0.0230469,
2016-09-21, 17:24:04,VALID,919.579,VALID,0.2,INVALID,119.345,VALID,112.921,VALID,20.891,VALID,63,VALID,1.02266,
2016-09-21, 17:25:04,VALID,919.583,VALID,0,INVALID,119.139,VALID,136.773,VALID,20.9089,VALID,50,VALID,0.231641,
2016-09-21, 17:26:04,VALID,919.602,VALID,0.2,INVALID,119.047,VALID,163.096,VALID,20.969,VALID,50,VALID,0,
2016-09-21, 17:27:04,VALID,919.574,VALID,0.2,INVALID,119.078,VALID,189.526,VALID,20.9495,VALID,164,VALID,0.00546875,
2016-09-21, 17:28:04,VALID,919.644,VALID,0.2,INVALID,119.276,VALID,194.468,VALID,20.8324,VALID,310,VALID,1.81523,
2016-09-21, 17:29:04,VALID,919.651,VALID,0.2,INVALID,119.367,VALID,178.89,VALID,20.7349,VALID,254,VALID,1.93906,
2016-09-21, 17:30:04,VALID,919.685,VALID,0,INVALID,119.299,VALID,169.22,VALID,20.756,VALID,199,VALID,0.803906,
2016-09-21, 17:31:04,VALID,919.678,VALID,0.2,INVALID,119.322,VALID,164.385,VALID,20.6959,VALID,211,VALID,0.396484,
2016-09-21, 17:32:04,VALID,919.696,VALID,0.2,INVALID,119.314,VALID,149.021,VALID,20.678,VALID,202,VALID,0,
2016-09-21, 17:33:04,VALID,919.725,VALID,0,INVALID,119.253,VALID,159.98,VALID,20.6764,VALID,202,VALID,0,
2016-09-21, 17:34:04,VALID,919.72,VALID,0.2,INVALID,119.314,VALID,178.137,VALID,20.6374,VALID,235,VALID,0.844531,
2016-09-21, 17:35:04,VALID,919.716,VALID,0,INVALID,119.306,VALID,161.054,VALID,20.5789,VALID,250,VALID,0.750781,
2016-09-21, 17:36:04,VALID,919.69,VALID,0,INVALID,119.261,VALID,127.64,VALID,20.5578,VALID,329,VALID,0.385547,
2016-09-21, 17:37:04,VALID,919.675,VALID,0.2,INVALID,119.238,VALID,116.036,VALID,20.5789,VALID,9,VALID,1.70078,
2016-09-21, 17:38:04,VALID,919.691,VALID,0.4,INVALID,119.268,VALID,146.872,VALID,20.5204,VALID,100,VALID,0.00195313,
2016-09-21, 17:39:04,VALID,919.697,VALID,0,INVALID,119.2,VALID,228.742,VALID,20.5009,VALID,197,VALID,0.523047,
2016-09-21, 17:40:04,VALID,919.644,VALID,0,INVALID,119.162,VALID,211.767,VALID,20.5009,VALID,219,VALID,1.0793,
2016-09-21, 17:41:04,VALID,919.683,VALID,0.2,INVALID,119.101,VALID,168.468,VALID,20.5009,VALID,232,VALID,0.0121094,
2016-09-21, 17:42:04,VALID,919.648,VALID,0,INVALID,119.169,VALID,153.963,VALID,20.4829,VALID,142,VALID,0.0417969,
2016-09-21, 17:43:04,VALID,919.659,VALID,0,INVALID,119.215,VALID,165.244,VALID,20.4033,VALID,246,VALID,1.09336,
2016-09-21, 17:44:04,VALID,919.643,VALID,0.2,INVALID,119.131,VALID,186.733,VALID,20.4439,VALID,20,VALID,1.53086,
2016-09-21, 17:45:04,VALID,919.629,VALID,0,INVALID,119.024,VALID,197.692,VALID,20.4618,VALID,283,VALID,0,
2016-09-21, 17:46:04,VALID,919.622,VALID,0.2,INVALID,118.956,VALID,199.196,VALID,20.4829,VALID,146,VALID,0.223047,
2016-09-21, 17:47:04,VALID,919.643,VALID,0,INVALID,118.834,VALID,209.94,VALID,20.5009,VALID,48,VALID,0.827734,
2016-09-21, 17:48:04,VALID,919.645,VALID,0.2,INVALID,118.841,VALID,213.056,VALID,20.5009,VALID,254,VALID,0.664844,
2016-09-21, 17:49:04,VALID,919.632,VALID,0,INVALID,119.055,VALID,210.262,VALID,20.4228,VALID,113,VALID,0,
2016-09-21, 17:50:04,VALID,919.654,VALID,0.2,INVALID,118.887,VALID,197.047,VALID,20.4408,VALID,29,VALID,1.06367,
2016-09-21, 17:51:04,VALID,919.69,VALID,0,INVALID,118.819,VALID,185.551,VALID,20.5009,VALID,229,VALID,0,
2016-09-21, 17:52:04,VALID,919.709,VALID,0.2,INVALID,118.948,VALID,157.186,VALID,20.4423,VALID,46,VALID,1.12383,
2016-09-21, 17:53:04,VALID,919.7,VALID,0,INVALID,118.834,VALID,146.657,VALID,20.4813,VALID,342,VALID,0.646875,
2016-09-21, 17:54:04,VALID,919.738,VALID,0.2,INVALID,118.849,VALID,172.336,VALID,20.4228,VALID,26,VALID,0.588281,
2016-09-21, 17:55:04,VALID,919.725,VALID,0,INVALID,118.857,VALID,176.203,VALID,20.3823,VALID,293,VALID,0.405859,
2016-09-21, 17:56:04,VALID,919.704,VALID,0,INVALID,119.146,VALID,216.386,VALID,20.2863,VALID,15,VALID,0.929297,
2016-09-21, 17:57:04,VALID,919.741,VALID,0.2,INVALID,119.268,VALID,192.105,VALID,20.2083,VALID,46,VALID,1.78125,
2016-09-21, 17:58:04,VALID,919.803,VALID,0,INVALID,119.116,VALID,168.575,VALID,20.2068,VALID,158,VALID,0.726172,
2016-09-21, 17:59:04,VALID,919.811,VALID,0.2,INVALID,118.948,VALID,169.112,VALID,20.2473,VALID,74,VALID,1.42969,
2016-09-21, 18:00:04,VALID,919.845,VALID,0,INVALID,118.91,VALID,187.162,VALID,20.2668,VALID,208,VALID,0.155469,
2016-09-21, 18:01:04,VALID,919.879,VALID,0.2,INVALID,118.834,VALID,179.104,VALID,20.2863,VALID,34,VALID,1.66992,
2016-09-21, 18:02:04,VALID,919.903,VALID,0,INVALID,119.116,VALID,182.328,VALID,20.2083,VALID,10,VALID,1.67109,
2016-09-21, 18:03:04,VALID,919.936,VALID,0.2,INVALID,119.215,VALID,156.327,VALID,20.0718,VALID,19,VALID,1.93906,
2016-09-21, 18:04:04,VALID,919.935,VALID,0,INVALID,119.116,VALID,176.848,VALID,20.1108,VALID,28,VALID,2.98008,
2016-09-21, 18:05:04,VALID,919.94,VALID,0.2,INVALID,119.017,VALID,190.493,VALID,20.1108,VALID,246,VALID,0.639453,